Hourly Data Report for October 04, 2013

All times are specified in Local Standard Time (LST). Add 1 hour to adjust for Daylight Saving Time where and when it is observed.

POND INLET A
NUNAVUT

72°41'22.000" N
77°58'08.000" W
61.60 m
2403206
71095
YIO

Download Data

Hourly Data (October 2013)
Hourly Data Report for October 4, 2013
Temp Definition
°C
Dew Point Temp Definition
°C
Rel Hum Definition
%
Wind Dir Definition
10's deg

Wind Spd Definition
km/h
Visibility Definition
km
Stn Press Definition
kPa
Hmdx Definition


Wind Chill Definition


Weather Definition


TIME
00:00 Legend Double Dagger -6.7 -11.1 71 27 32 16.1 100.98   -15 LegendNANA
01:00 Legend Double Dagger -6.7 -11.2 71 27 37 16.1 100.99   -16 LegendNANA
02:00 Legend Double Dagger -7.0 -11.4 71 26 32 16.1 101.02   -16 LegendNANA
03:00 Legend Double Dagger -7.2 -11.3 73 26 28 16.1 101.04   -16 LegendNANA
04:00 Legend Double Dagger -7.4 -11.5 73 25 32 16.1 101.02   -16 LegendNANA
05:00 Legend Double Dagger -7.4 -11.0 76 27 32 16.1 101.06   -16 LegendNANA
06:00 Legend Double Dagger -7.4 -12.5 67 26 24 16.1 101.11   -15 LegendNANA
07:00 Legend Double Dagger -7.3 -12.3 68 26 35 16.1 101.09   -17 LegendNANA
08:00 Legend Double Dagger -7.4 -12.2 69 26 30 16.1 101.12   -16 LegendNANA
09:00 Legend Double Dagger -7.2 -12.6 66 27 30 16.1 101.13   -16 LegendNANA
10:00 Legend Double Dagger -6.6 -12.9 61 27 28 16.1 101.15   -15 LegendNANA
11:00 Legend Double Dagger -6.4 -12.7 61 28 28 16.1 101.13   -15 LegendNANA
12:00 Legend Double Dagger -6.5 -12.2 64 28 21 11.3 101.15   -14 LegendNANA
13:00 Legend Double Dagger -6.5 -12.5 63 24 24 16.1 101.14   -14 LegendNANA
14:00 Legend Double Dagger -6.4 -10.7 72 26 24 12.9 101.17   -14 LegendNANA
15:00 Legend Double Dagger -6.7 -10.1 77 27 15 16.1 101.20   -13 LegendNANA
16:00 Legend Double Dagger -6.4 -12.4 63 28 17 14.5 101.20   -13 LegendNANA
17:00 Legend Double Dagger -6.7 -11.6 68 27 21 16.1 101.18   -14 LegendNANA
18:00 Legend Double Dagger -9.3 -12.3 79 18 18 16.1 101.19   -17 LegendNANA
19:00 Legend Double Dagger -10.0 -12.5 82 15 18 16.1 101.19   -17 LegendNANA
20:00 Legend Double Dagger -9.9 -12.4 82 14 18 16.1 101.20   -17 LegendNANA
21:00 Legend Double Dagger -9.9 -12.3 83 14 21 16.1 101.19   -18 LegendNANA
22:00 Legend Double Dagger -9.8 -12.2 83 14 21 16.1 101.20   -18 LegendNANA
23:00 Legend Double Dagger -9.5 -11.8 84 15 21 16.1 101.20   -17 LegendNANA

Notes on Data Quality.

Legend

  • E = Estimated
  • M = Missing
  • NA = Not Available
  • ‡ = Partner data that is not subject to review by the National Climate Archives
Date modified: